Flag for Russia Weather past 2 weeks in Sochi, Russia

Now
63 °F

Mostly cloudy.


Feels Like: 63 °F
Forecast: 64 / 79 °F
Wind: 3 mph from Northeast

Location: Adler

Current Time: Sep 21, 2014 at 8:11:59 AM

Latest Report: Sep 21, 2014 at 7:30 AM


Visibility: N/A

Pressure: 29.89 "Hg

Humidity: 94%

Dew point: 61 °F

Location of SochiLocation

Historic Weather in Sochi — Graph

°F

Sochi temperature yesterday

Maximum temperature yesterday: 73 °F (at 4:30 PM)
Minimum temperature yesterday: 63 °F (at 7:30 AM)
Average temperature yesterday: 66 °F

Past Weeks' High & Low Weather Summary

 TemperatureHumidityPressure
High86 °F (Sep 6, 2:00 PM)94% (Sep 10, 1:00 AM)30.01 "Hg (Sep 10, 1:00 AM)
Low63 °F (Sep 14, 6:30 AM)43% (Sep 6, 4:30 PM)29.62 "Hg (Sep 6, 6:30 PM)
Average71 °F75%29.88 "Hg
* Reported Sep 6 7:30 AM — Sep 21 7:00 AM, Sochi, Weather by CustomWeather, © 2014

Note: Actual official high and low records may vary slightly from our data, if they occured in-between our weather recording intervals... More about our weather records

Advertising

Sochi weather history for previous 24 hours

 ConditionsComfort  
Time TempWeatherWind HumidityBarometerVisibility
7:00 AM
Sep 21
63 °FSprinkles. Mostly cloudy.3 mph94%29.89 "HgN/A
6:30 AM63 °FSprinkles. Mostly cloudy.3 mph94%29.89 "HgN/A
6:00 AM64 °FPassing clouds.3 mph88%29.89 "HgN/A
5:30 AM63 °FPassing clouds.6 mph94%29.89 "HgN/A
5:00 AM63 °FPassing clouds.3 mph94%29.89 "HgN/A
4:30 AM64 °FPassing clouds.6 mph88%29.89 "HgN/A
4:00 AM64 °FPassing clouds.6 mph88%29.92 "HgN/A
3:30 AM64 °FPassing clouds.6 mph88%29.92 "HgN/A
3:00 AM64 °FPassing clouds.6 mph88%29.92 "HgN/A
2:30 AM63 °FPassing clouds.6 mph94%29.92 "HgN/A
2:00 AM63 °FPassing clouds.6 mph94%29.92 "HgN/A
1:30 AM64 °FPassing clouds.6 mph88%29.92 "HgN/A
1:00 AM63 °FPassing clouds.6 mph94%29.92 "HgN/A
12:30 AM64 °FPassing clouds.6 mph88%29.92 "HgN/A
12:00 AM63 °FPassing clouds.3 mph94%29.92 "HgN/A
11:30 PM
Sep 20
64 °FPassing clouds.3 mph88%29.92 "HgN/A
11:00 PM64 °FPartly cloudy.6 mph88%29.92 "HgN/A
10:30 PM63 °FPartly cloudy.6 mph94%29.95 "HgN/A
10:00 PM64 °FPassing clouds.6 mph88%29.95 "HgN/A
9:30 PM64 °FPassing clouds.3 mph88%29.95 "HgN/A
5:30 PM70 °FPartly sunny.6 mph73%29.92 "HgN/A
5:00 PM72 °FPartly sunny.8 mph69%29.92 "HgN/A
4:30 PM73 °FPartly sunny.6 mph65%29.92 "HgN/A
4:00 PM72 °FPartly sunny.3 mph69%29.92 "HgN/A
3:30 PM72 °FMore clouds than sun.3 mph69%29.92 "HgN/A
3:00 PM72 °FMore clouds than sun.6 mph69%29.92 "HgN/A
2:30 PM72 °FMostly cloudy.6 mph69%29.92 "HgN/A
2:00 PM72 °FMostly cloudy.8 mph73%29.92 "HgN/A
1:30 PM72 °FMore clouds than sun.6 mph73%29.92 "HgN/A
1:00 PM68 °FMore clouds than sun.3 mph83%29.92 "HgN/A
12:30 PM68 °FMostly cloudy.1 mph83%29.92 "HgN/A
12:00 PM66 °FMostly cloudy.6 mph83%29.92 "HgN/A
11:30 AM66 °FSprinkles. Mostly cloudy.1 mph88%29.95 "HgN/A
11:00 AM66 °FMostly cloudy.3 mph83%29.92 "HgN/A
10:30 AM64 °FMostly cloudy.6 mph88%29.92 "HgN/A
10:00 AM64 °FSprinkles. Mostly cloudy.3 mph88%29.92 "HgN/A
9:30 AM64 °FSprinkles. Mostly cloudy.3 mph88%29.95 "HgN/A
9:00 AM64 °FSprinkles. Mostly cloudy.3 mph88%29.95 "HgN/A
8:30 AM63 °FSprinkles. More clouds than sun.6 mph94%29.95 "HgN/A
8:00 AM63 °FSprinkles. Mostly cloudy.6 mph94%29.95 "HgN/A
Weather by CustomWeather, © 2014

See weather overviewHow to use our weather pages